Location: Marse
(42.1502°N, 110.9866°W)
Time: 11:24:11
(UTC+00:00)

DX 1 - Visible Passes

Search period start: 25 June 2022 00:00
Search period end: 05 July 2022 00:00
Orbit: 618 x 628 km, 98.4° (Epoch: 25 June)

Date Brightness Start Highest point End Pass type
(mag) Time Alt. Az. Time Alt. Az. Time Alt. Az.
25 Jun ? 04:36:35 10° NNE 04:41:00 87° ESE 04:45:20 10° SSW visible
25 Jun ? 06:16:03 10° NW 06:16:24 10° WNW 06:16:46 10° WNW visible
26 Jun ? 04:54:55 10° N 04:59:14 60° WNW 05:03:31 10° SSW visible
27 Jun ? 03:37:59 10° NE 03:41:11 20° E 03:44:22 10° SE visible
27 Jun ? 05:13:21 10° N 05:17:26 38° WNW 05:21:28 10° SW visible
28 Jun ? 03:55:43 10° NE 03:59:35 30° E 04:03:25 10° SSE visible
28 Jun ? 05:31:59 10° NNW 05:35:35 25° WNW 05:39:10 10° WSW visible
29 Jun ? 04:13:42 10° NNE 04:17:56 47° E 04:21:57 11° S visible
29 Jun ? 05:50:48 10° NNW 05:53:41 17° WNW 05:56:32 10° WSW visible
30 Jun ? 04:31:50 10° NNE 04:36:14 75° ESE 04:40:24 11° S visible
30 Jun ? 06:10:12 10° NW 06:11:43 12° WNW 06:13:15 10° W visible
01 Jul ? 04:50:07 10° N 04:54:29 70° WNW 04:58:49 10° SSW visible
02 Jul ? 03:33:29 10° NE 03:36:22 17° E 03:39:13 10° SE visible
02 Jul ? 05:08:31 10° N 05:12:41 44° WNW 05:16:49 10° SW visible
03 Jul ? 03:51:05 10° NE 03:54:46 26° E 03:58:25 10° SSE visible
03 Jul ? 05:27:04 10° N 05:30:51 29° WNW 05:34:36 10° SW visible
04 Jul ? 04:08:59 10° NNE 04:13:07 40° E 04:16:56 12° SSE visible
04 Jul ? 05:45:48 10° NNW 05:48:57 20° WNW 05:52:05 10° WSW visible
